Weather History for Paganella, Italy

Change the Weather History Date:

Monday, January 6, 2014

  Actual Average Record
Temperature  
Mean Temperature 30 °F -  
Max Temperature 34 °F 28 °F 46 °F (1999)
Min Temperature 25 °F 19 °F 8 °F (2011)
Degree Days  
Heating Degree Days 36    
Moisture  
Dew Point 27 °F    
Average Humidity 79    
Maximum Humidity 87    
Minimum Humidity 70    
Precipitation  
Precipitation 0.00 in 0.04 in - ()
Sea Level Pressure  
Sea Level Pressure 30.02 in    
Wind  
Wind Speed 8 mph ()    
Max Wind Speed 15 mph    
Max Gust Speed -    
Visibility 6.1 miles    
Events      
Averages and records for this station are not official NWS values.
T = Trace of Precipitation, MM = Missing Value Source: Averaged Metar Reports

Daily Weather History Graph

Daily Weather History Graph

Search for Another Location

Airport:

Trip Planner

Search our weather history database for the weather conditions in past years. The results will help you decide how hot, cold, wet, or windy it might be!

Date:

Astronomy

Jan. 06, 2014 Rise Set
Actual Time 7:57 AM CET 4:45 PM CET
Civil Twilight 7:23 AM CET 5:19 PM CET
Nautical Twilight 6:45 AM CET 5:57 PM CET
Astronomical Twilight 6:09 AM CET 6:33 PM CET
Moon 10:43 AM CET (1/6) 11:23 PM CET (1/6)
Length of Visible Light 9h 56m
Length of Day
8h 47m
Waxing Crescent, 32% of the Moon is Illuminated
Jan 6
Waxing Crescent
Jan 8
First Quarter
Jan 16
Full
Jan 24
Last Quarter
Jan 30
New

Hourly Weather History & Observations

Time (CET) Temp. Windchill Dew Point Humidity Pressure Visibility Wind Dir Wind Speed Gust Speed Precip Events Conditions
12:00 AM 27 °F - 22 °F 74%  in 44 mi North 8.1 mph - -   Scattered Clouds
12:55 AM 28.4 °F 24.6 °F 23.0 °F 80% 29.86 in - North 3.5 mph - N/A   Clear
1:00 AM 28 °F - 23 °F 76%  in 44 mi North 3.5 mph - -   Scattered Clouds
1:55 AM 30.2 °F 25.4 °F 24.8 °F 80% 29.89 in - SSE 4.6 mph - N/A   Clear
2:00 AM 29 °F - 25 °F 77%  in 44 mi SSE 4.6 mph - -   Scattered Clouds
2:55 AM 30.2 °F 21.9 °F 24.8 °F 80% 29.89 in - South 9.2 mph - N/A   Clear
3:00 AM 29 °F - 25 °F 79%  in 37 mi South 9.2 mph - -   Partly Cloudy
3:55 AM 30.2 °F 20.8 °F 26.6 °F 86% 29.92 in - South 11.5 mph - N/A   Clear
4:00 AM 30 °F - 26 °F 80%  in 37 mi South 11.5 mph - -   Partly Cloudy
4:55 AM 30.2 °F 20.8 °F 24.8 °F 80% 29.92 in - SW 11.5 mph - N/A   Clear
5:00 AM 30 °F - 26 °F 77%  in 47 mi SW 11.5 mph - -  
5:55 AM 30.2 °F 20.8 °F 24.8 °F 80% 29.95 in - SW 11.5 mph - N/A   Clear
6:00 AM 30 °F - 26 °F 77%  in 47 mi SW 11.5 mph - -  
6:55 AM 30.2 °F 19.8 °F 26.6 °F 86% 29.98 in - SW 13.8 mph - N/A   Clear
7:00 AM 31 °F - 27 °F 80%  in 44 mi SW 13.8 mph - -   Scattered Clouds
7:55 AM 32.0 °F 21.6 °F 28.4 °F 87% 29.98 in - WSW 15.0 mph - N/A   Clear
8:00 AM 31 °F - 28 °F 81%  in 44 mi WSW 15.0 mph - -   Scattered Clouds
8:55 AM 30.2 °F 19.3 °F 26.6 °F 86% 30.01 in - SW 15.0 mph - N/A   Clear
9:55 AM 32.0 °F 23.0 °F 26.6 °F 80% 30.04 in - SW 11.5 mph - N/A   Clear
10:00 AM 31 °F - 27 °F 78%  in 44 mi SW 11.5 mph - -   Scattered Clouds
10:55 AM 32.0 °F 23.0 °F 26.6 °F 80% 30.06 in - SSW 11.5 mph - N/A   Clear
11:00 AM 32 °F - 28 °F 77%  in 47 mi SSW 11.5 mph - -   Scattered Clouds
11:55 AM 33.8 °F 25.3 °F 28.4 °F 81% 30.06 in - SSW 11.5 mph - N/A   Clear
12:00 PM 34 °F - 29 °F 75%  in 47 mi SSW 11.5 mph - -   Scattered Clouds
12:55 PM 33.8 °F 24.3 °F 28.4 °F 81% 30.06 in - SW 13.8 mph - N/A   Clear
1:00 PM 33 °F - 28 °F 77%  in 47 mi SW 13.8 mph - -   Clear
1:55 PM 33.8 °F 26.4 °F 28.4 °F 81% 30.06 in - SW 9.2 mph - N/A   Clear
2:00 PM 33 °F - 29 °F 79%  in 47 mi SW 9.2 mph - -   Clear
2:55 PM 33.8 °F 28.6 °F 28.4 °F 81% 30.06 in - SW 5.8 mph - N/A   Clear
3:00 PM 34 °F - 28 °F 72%  in 47 mi SW 5.8 mph - -   Clear
3:55 PM 33.8 °F - 28.4 °F 81% 30.06 in - SW 2.3 mph - N/A   Clear
4:00 PM 34 °F - 29 °F 73%  in 47 mi SW 2.3 mph - -   Scattered Clouds
4:55 PM 32.0 °F - 26.6 °F 80% 30.06 in - Calm Calm - N/A   Clear
5:00 PM 33 °F - 27 °F 70%  in 47 mi Calm Calm - -   Partly Cloudy
5:55 PM 32.0 °F - 26.6 °F 80% 30.09 in - Calm Calm - N/A   Clear
6:00 PM 32 °F - 27 °F 73%  in 47 mi Calm Calm - -   Scattered Clouds
6:55 PM 32.0 °F - 26.6 °F 80% 30.09 in - Calm Calm - N/A   Clear
7:00 PM 32 °F - 27 °F 74%  in 47 mi Calm Calm - -   Scattered Clouds
7:55 PM 33.8 °F 30.8 °F 28.4 °F 81% 30.09 in - WNW 3.5 mph - N/A   Clear
8:00 PM 34 °F - 29 °F 75%  in 44 mi WNW 3.5 mph - -   Clear
8:55 PM 33.8 °F 27.0 °F 28.4 °F 81% 30.09 in 6.2 mi WSW 8.1 mph - N/A   Scattered Clouds
9:00 PM 34 °F - 29 °F 73%  in 6 mi WSW 8.1 mph - -   Partly Cloudy
9:55 PM 33.8 °F 25.3 °F 28.4 °F 81% 30.09 in 6.2 mi SSW 11.5 mph - N/A   Scattered Clouds
10:00 PM 33 °F - 29 °F 78%  in 6 mi SSW 11.5 mph - -   Partly Cloudy
10:55 PM 32.0 °F 24.2 °F 28.4 °F 87% 30.09 in 6.2 mi WSW 9.2 mph - N/A   Mostly Cloudy
11:00 PM 33 °F - 28 °F 77%  in 6 mi WSW 9.2 mph - -   Mostly Cloudy
11:55 PM 33.8 °F 25.3 °F 28.4 °F 81% 30.09 in 6.2 mi SSW 11.5 mph - N/A   Mostly Cloudy